Location: Cahas Mountain Overlook
(37.0833°N, 80.1000°W)
Time: 10:26:44
(UTC-05:00)

S-56A Canister/Altair - Pass Details

Date: 05 December 2023
Orbit: 640 x 2488 km, 38.9° (Epoch: 25 February)

Event Time Altitude Azimuth Distance (km) Brightness Sun altitude
Rises 12:21:03 0° 253° (WSW) 3,176 10.9 30.5°
Reaches altitude 10° 12:23:35 10° 252° (WSW) 2,133 10.2 30.4°
Maximum altitude 12:28:16 84° 166° (SSE) 644 7.8 30.4°
Drops below altitude 10° 12:32:49 10° 77° (ENE) 2,071 9.7 30.3°
Sets 12:35:15 0° 77° (ENE) 3,076 10.5 30.2°
